Regional Weather Roundup
Issued by NWS Sterling, VA

Home | Current Version | Previous Version | Text Only | Print | Product List | Glossary On
Versions: 1 2 3 4 5 6 7 8 9 10 11 12 13 14 15 16 17 18 19 20 21 22 23 24 25 26 27 28 29 30 31 32 33 34 35 36 37 38 39 40 41 42 43 44 45 46 47 48 49 50
000
ASUS41 KLWX 240010
RWRLWX

REGIONAL WEATHER ROUNDUP
NATIONAL WEATHER SERVICE BALTIMORE MD/WASHINGTON DC
800 PM EDT TUE SEP 23 2014

Note: "FAIR" indicates few or no clouds below 12,000 feet
with no significant weather and/or obstructions to visibility.
 TC=TEMPERATURE CELSIUS

 * =Non NWS site. Station does not report precipitation (e.g. rain,
    snow, etc.), thunder, or fog.

DCZ001-MDZ009-015-VAZ040>042-051-053>054-240100-
WASHINGTON METRO

CITY           SKY/WX    TMP DP  RH WIND       PRES   REMARKS
WASHINGTON NAT MOCLDY    66  44  45 SE5       30.35R
DULLES         MOCLDY    60  45  57 NE5       30.34S
ANDREWS AFB    CLEAR     57  49  73 CALM      30.35R
QUANTICO       MOCLDY    62  53  72 NW5       30.36R
COLLEGE PARK*  CLEAR     59  50  72 CALM      30.35R
LEESBURG*      PTCLDY    59  52  77 CALM      30.35S
GAITHERSBURG*  PTCLDY    55  48  76 CALM      30.38S

$$

MDZ006>007-011-014-240100-
BALTIMORE METRO

CITY           SKY/WX    TMP DP  RH WIND       PRES   REMARKS
BWI AIRPORT    PTCLDY    59  48  67 CALM      30.34R
MD SCIENCE CTR   N/A     66  46  48 MISG      30.35R
ANNAPOLIS      CLEAR     61  51  70 CALM      30.35R
FORT MEADE*    PTCLDY    54  50  87 CALM      30.37R

$$

MDZ012-015-019>023-240100-
MARYLAND EASTERN SHORE

CITY           SKY/WX    TMP DP  RH WIND       PRES   REMARKS
OCEAN CITY     CLOUDY    57  50  77 N6        30.34S
SALISBURY      CLOUDY    59  49  69 NE5       30.34R
BAY BRIDGE AP*   N/A     63  45  51 SE7       30.36R
CAMBRIDGE*     CLEAR     59  46  63 NE6       30.35R
EASTON*        PTCLDY    59  48  67 CALM      30.39R

$$

MDZ017>025-240100-
SOUTHERN MARYLAND

CITY           SKY/WX    TMP DP  RH WIND       PRES   REMARKS
PATUXENT RIVER PTCLDY    53  46  77 CALM      30.33R
ST INIGOES     PTCLDY    51  46  83 CALM      30.33R
LEONARDTOWN*   PTCLDY    54  46  76 CALM      30.36R

$$

MDZ003>005-240100-
NORTH CENTRAL MARYLAND

CITY           SKY/WX    TMP DP  RH WIND       PRES   REMARKS
FREDERICK*     CLEAR     57  54  88 CALM      30.37R
HAGERSTOWN APT PTCLDY    63  47  55 S5        30.35R
WESTMINSTER*   PTCLDY    63  45  51 CALM      30.36R

$$

MDZ501>502-240100-
WESTERN MARYLAND

CITY           SKY/WX    TMP DP  RH WIND       PRES   REMARKS
OAKLAND*       PTCLDY    54  32  43 SE7       30.37S
CUMBERLAND*    PTCLDY    61  37  41 CALM      30.37R

$$

VAZ025>031-240100-
SHENANDOAH VALLEY

CITY           SKY/WX    TMP DP  RH WIND       PRES   REMARKS
WINCHESTER*    PTCLDY    54  43  66 CALM      30.35R
STAUNTON*      MOCLDY    60  42  51 NE3       30.36R

$$

WVZ021-048>050-054>055-240100-
EASTERN WEST VIRGINIA PANHANDLE

CITY           SKY/WX    TMP DP  RH WIND       PRES   REMARKS
MARTINSBURG    PTCLDY    58  45  62 CALM      30.35R
PETERSBURG*    PTCLDY    57  48  72 W5        30.35R

$$

VAZ036>039-050-240100-
CENTRAL FOOTHILLS

CITY           SKY/WX    TMP DP  RH WIND       PRES   REMARKS
CHARLOTTESVILL MOCLDY    62  44  51 E5        30.34R
ORANGE*        MOCLDY    55  48  76 CALM      30.36R

$$

VAZ055>057-240100-
NORTH AND CENTRAL PIEDMONT

CITY           SKY/WX    TMP DP  RH WIND       PRES   REMARKS
FREDERICKSBRG* MOCLDY    61  51  69 CALM      30.33R
STAFFORD*      MOCLDY    55  55 100 CALM      30.38R

$$

NCZ024-NYZ072-PAZ021-071-VAZ022-071-240100-
OTHER REGIONAL OBSERVATIONS

CITY           SKY/WX    TMP DP  RH WIND       PRES   REMARKS
NEW YORK CITY  CLEAR     65  49  56 VRB5      30.36R
PHILADELPHIA   PTCLDY    65  48  54 S6        30.36R
PITTSBURGH     PTCLDY    61  46  57 E5        30.34R
ROANOKE        CLOUDY    57  50  77 SE3       30.34R
RICHMOND       MOCLDY    59  47  64 E3        30.34R
RALEIGH        LGT RAIN  58  49  72 NE6       30.32S

$$

ANZ530>537-240100-
MARINE OBSERVATIONS

STATION/POSITION TIME  TEMP    WIND        PRES
                       AIR SEA DIR/SP/G
                 (UTC) (F)     (DEG/KT/KT) (MB)
THOMAS PT LIGHT  0000   65 72  110/ 12/ 14 1028.6R
BALT KEY BRIDGE  0000   67      40/  5/  5 1027.2R
COVE POINT       0000   65      70/  7/ 10 1027.2R
LEWISETTA        0000   64 70   50/  4/  6 1026.7R
SOLOMONS ISLAND  0000      74                N/A
PINEY POINT      0000           20/  3/  4   N/A

$$




USA.gov is the U.S. government's official web portal to all federal, state and local government web resources and services.